Радомир, Боби, 24.08.2024 Measurements

Back to Overview

Timestamp Temperature Humidity
5/4/2026 3:53:53 PM 18,9 C 35.0%
5/4/2026 3:46:50 PM 20,1 C 34.0%
5/4/2026 3:39:52 PM 20,4 C 34.0%
5/4/2026 3:32:49 PM 20,2 C 35.0%
5/4/2026 3:25:48 PM 21,2 C 34.0%
5/4/2026 3:18:46 PM 20,0 C 35.0%
5/4/2026 3:11:44 PM 19,3 C 35.0%
5/4/2026 3:04:43 PM 20,3 C 36.0%
5/4/2026 2:57:40 PM 18,7 C 37.0%
5/4/2026 2:50:39 PM 19,1 C 36.0%
5/4/2026 2:43:35 PM 19,4 C 35.0%
5/4/2026 2:36:34 PM 20,2 C 34.0%
5/4/2026 2:29:30 PM 20,3 C 34.0%
5/4/2026 2:22:29 PM 20,6 C 34.0%
5/4/2026 2:15:28 PM 20,0 C 36.0%
5/4/2026 2:08:24 PM 19,6 C 36.0%
5/4/2026 2:01:22 PM 18,7 C 36.0%
5/4/2026 1:54:19 PM 18,3 C 38.0%
5/4/2026 1:47:18 PM 18,2 C 37.0%
5/4/2026 1:40:17 PM 19,2 C 36.0%
5/4/2026 1:33:15 PM 19,6 C 38.0%
5/4/2026 1:26:11 PM 19,3 C 38.0%
5/4/2026 1:19:09 PM 18,9 C 37.0%
5/4/2026 1:12:06 PM 19,4 C 37.0%
5/4/2026 1:05:04 PM 19,6 C 39.0%
5/4/2026 12:58:01 PM 19,2 C 39.0%
5/4/2026 12:50:59 PM 18,4 C 39.0%
5/4/2026 12:43:56 PM 18,4 C 37.0%
5/4/2026 12:36:52 PM 18,3 C 37.0%
5/4/2026 12:29:51 PM 17,9 C 41.0%
5/4/2026 12:22:47 PM 17,8 C 39.0%
5/4/2026 12:15:45 PM 17,8 C 42.0%
5/4/2026 12:08:41 PM 17,5 C 41.0%
5/4/2026 12:01:40 PM 17,6 C 38.0%
5/4/2026 11:54:37 AM 17,5 C 41.0%
5/4/2026 11:47:33 AM 17,0 C 42.0%
5/4/2026 11:40:32 AM 16,6 C 40.0%
5/4/2026 11:33:30 AM 16,1 C 41.0%
5/4/2026 11:26:29 AM 16,1 C 42.0%
5/4/2026 11:19:25 AM 15,5 C 45.0%
5/4/2026 11:12:22 AM 15,2 C 45.0%
5/4/2026 11:05:21 AM 14,4 C 47.0%
5/4/2026 10:58:20 AM 13,6 C 50.0%
5/4/2026 10:51:16 AM 12,9 C 50.0%
5/4/2026 10:49:15 AM 12,8 C 51.0%
5/4/2026 10:43:26 AM 12,6 C 46.0%
5/4/2026 10:42:55 AM 12,6 C 51.0%
5/4/2026 10:40:42 AM 12,5 C 46.0%
5/4/2026 10:37:05 AM 12,3 C 51.0%
5/4/2026 10:30:02 AM 12,2 C 49.0%
5/4/2026 10:29:02 AM 12,1 C 55.0%
5/4/2026 10:22:00 AM 11,5 C 52.0%
5/4/2026 10:16:09 AM 10,8 C 58.0%
5/4/2026 10:09:06 AM 9,9 C 61.0%
5/4/2026 10:06:41 AM 9,6 C 55.0%
5/4/2026 10:03:22 AM 8,9 C 61.0%
5/4/2026 9:56:21 AM 7,1 C 62.0%
5/4/2026 9:52:08 AM 6,3 C 67.0%
5/4/2026 9:45:05 AM 5,7 C 67.0%
5/4/2026 9:38:02 AM 5,1 C 68.0%
5/4/2026 9:31:01 AM 4,7 C 70.0%
5/4/2026 9:23:59 AM 4,1 C 71.0%
5/4/2026 9:16:58 AM 3,7 C 72.0%
5/4/2026 9:09:55 AM 3,1 C 73.0%
5/4/2026 9:02:53 AM 2,6 C 74.0%
5/4/2026 8:55:52 AM 2,1 C 74.0%
5/4/2026 8:48:50 AM 1,7 C 74.0%
5/4/2026 8:41:46 AM 1,4 C 75.0%
5/4/2026 8:34:44 AM 1,1 C 77.0%
5/4/2026 8:27:41 AM 0,6 C 77.0%
5/4/2026 8:20:40 AM 0,2 C 77.0%
5/4/2026 8:13:37 AM -0,1 C 77.0%
5/4/2026 8:06:34 AM -0,4 C 78.0%
5/4/2026 7:59:31 AM -0,7 C 77.0%
5/4/2026 7:52:29 AM -0,8 C 77.0%
5/4/2026 7:45:26 AM -1,0 C 77.0%
5/4/2026 7:38:24 AM -1,2 C 78.0%
5/4/2026 7:31:23 AM -1,3 C 77.0%
5/4/2026 7:24:21 AM -1,5 C 77.0%
5/4/2026 7:17:18 AM -1,5 C 77.0%
5/4/2026 7:10:16 AM -1,5 C 77.0%
5/4/2026 7:03:14 AM -1,3 C 77.0%
5/4/2026 6:56:10 AM -1,4 C 77.0%
5/4/2026 6:49:09 AM -1,4 C 77.0%
5/4/2026 6:42:07 AM -1,5 C 77.0%
5/4/2026 6:35:04 AM -1,5 C 77.0%
5/4/2026 6:28:00 AM -1,5 C 76.0%
5/4/2026 6:20:58 AM -1,4 C 76.0%
5/4/2026 6:13:56 AM -1,2 C 76.0%
5/4/2026 6:06:54 AM -1,0 C 76.0%
5/4/2026 5:59:53 AM -1,0 C 75.0%
5/4/2026 5:52:51 AM -1,1 C 76.0%
5/4/2026 5:45:48 AM -1,1 C 75.0%
5/4/2026 5:38:46 AM -1,0 C 76.0%
5/4/2026 5:31:42 AM -0,9 C 75.0%
5/4/2026 5:24:40 AM -0,8 C 75.0%
5/4/2026 5:17:37 AM -0,7 C 75.0%
5/4/2026 5:10:33 AM -0,8 C 74.0%
5/4/2026 5:03:30 AM -0,9 C 75.0%
5/4/2026 4:56:28 AM -0,9 C 75.0%
5/4/2026 4:49:25 AM -0,9 C 75.0%
5/4/2026 4:42:22 AM -0,9 C 75.0%
5/4/2026 4:35:20 AM -0,9 C 75.0%
5/4/2026 4:28:17 AM -0,8 C 74.0%
5/4/2026 4:21:16 AM -0,7 C 73.0%
5/4/2026 4:14:15 AM -0,4 C 73.0%
5/4/2026 4:07:11 AM -0,3 C 73.0%
5/4/2026 4:00:09 AM -0,1 C 73.0%
5/4/2026 3:53:05 AM 0,0 C 73.0%
5/4/2026 3:46:02 AM 0,0 C 73.0%
5/4/2026 3:38:58 AM -0,1 C 72.0%
5/4/2026 3:31:55 AM 0,0 C 72.0%
5/4/2026 3:24:52 AM 0,0 C 72.0%
5/4/2026 3:17:48 AM 0,1 C 72.0%
5/4/2026 3:10:45 AM 0,1 C 72.0%
5/4/2026 3:03:43 AM 0,1 C 72.0%
5/4/2026 2:56:39 AM 0,1 C 72.0%
5/4/2026 2:49:38 AM 0,1 C 70.0%
5/4/2026 2:42:37 AM 0,3 C 71.0%
5/4/2026 2:35:36 AM 0,3 C 71.0%
5/4/2026 2:28:33 AM 0,4 C 71.0%
5/4/2026 2:21:30 AM 0,4 C 70.0%
5/4/2026 2:14:29 AM 0,5 C 69.0%
5/4/2026 2:07:27 AM 0,5 C 69.0%
5/4/2026 2:00:25 AM 0,6 C 70.0%
5/4/2026 1:53:23 AM 0,5 C 70.0%
5/4/2026 1:46:22 AM 0,5 C 70.0%
5/4/2026 1:39:19 AM 0,6 C 68.0%
5/4/2026 1:32:16 AM 0,6 C 70.0%
5/4/2026 1:25:13 AM 0,6 C 70.0%
5/4/2026 1:18:10 AM 0,7 C 69.0%
5/4/2026 1:11:08 AM 1,0 C 68.0%
5/4/2026 1:04:06 AM 1,2 C 68.0%
5/4/2026 12:57:02 AM 1,3 C 68.0%
5/4/2026 12:49:59 AM 1,2 C 67.0%
5/4/2026 12:42:58 AM 1,4 C 67.0%
5/4/2026 12:35:54 AM 1,6 C 66.0%
5/4/2026 12:28:52 AM 1,7 C 66.0%
5/4/2026 12:21:49 AM 2,0 C 65.0%
5/4/2026 12:14:47 AM 2,2 C 64.0%
5/4/2026 12:07:46 AM 2,3 C 63.0%
5/4/2026 12:00:43 AM 2,4 C 63.0%